Location: Vinland
(47.7731°N, 122.6974°W)
Time: 05:48:58
(UTC+00:00)

Vanguard 2 - Pass Details

Date: 27 April 2024
Orbit: 552 x 2914 km, 32.9° (Epoch: 25 May)

Event Time Altitude Azimuth Distance (km) Brightness Sun altitude
Exits shadow 08:50:12 40° 180° (S) 3,239 10.1 -27.5°
Maximum altitude 08:52:12 41° 164° (SSE) 3,288 10.2 -27.4°
Drops below altitude 10° 09:07:33 10° 103° (ESE) 5,725 12.0 -26.8°
Sets 09:12:28 0° 97° (E) 6,756 12.5 -26.5°
